Location: Complexul Astronomic Baia Mare
(47.6577°N, 23.5639°E)
Time: 03:04:07
(UTC+03:00)

ISS - Pass Details

Date: 26 May 2017
Orbit: 401 x 408 km, 51.6° (Epoch: 27 June)

Event Time Altitude Azimuth Distance (km) Brightness Sun altitude
Rises 04:23:15 0° 289° (WNW) 2,334 -0.2 -10.2°
Reaches altitude 10° 04:25:35 10° 274° (W) 1,468 -1.4 -9.9°
Maximum altitude 04:28:16 23° 220° (SW) 906 -2.7 -9.6°
Drops below altitude 10° 04:30:56 10° 165° (SSE) 1,455 -1.3 -9.3°
Sets 04:33:15 0° 150° (SSE) 2,309 -0.2 -9.0°
